Regional Weather Roundup
Issued by NWS Charleston, SC

Current Version | Previous Version | Graphics & Text | Print | Product List | Glossary On
Versions: 1 2 3 4 5 6 7 8 9 10 11 12 13 14 15 16 17 18 19 20 21 22 23 24 25 26 27 28 29 30 31 32 33 34 35 36 37 38 39 40 41 42 43 44 45 46 47 48 49 50
000
ASUS42 KCHS 161812
RWRCHS

Regional Weather Roundup
National Weather Service Charleston SC
100 PM EST SAT DEC 16 2017

NOTE: "fair" indicates few or no clouds below 12,000 feet with no
significant weather and/or obstructions to visibility.

Not all stations are quality controlled. Use data with caution,
especially dewpoint observations.

SCZ027-030-031-034>040-042>050-161900-
...Southeast South Carolina...

CITY           SKY/WX    TMP DP  RH WIND       PRES   REMARKS
N Charleston   MOSUNNY   52  31  44 VRB3      30.28F
6HR MIN TEMP:  32; 6HR MAX TEMP:  52;

Waterfront Prk   N/A     51  37  58 E6        30.15F
Mount Pleasant FAIR      52  34  50 S7        30.28F
Johns Island   FAIR      52  37  58 E6G12     30.28F
Pinopolis        N/A     45  30  57 N5        30.21F
Moncks Corner  FAIR      50  25  37 S5        30.27F HAZE
Summerville    FAIR      52  30  43 CALM      30.28F
Beaufort MCAS  SUNNY     51  35  54 CALM      30.29F
6HR MIN TEMP:  35; 6HR MAX TEMP:  51;

Beaufort Arpt  FAIR      50  34  53 S5        30.28F HAZE
Hilton Head Is SUNNY     48  36  61 N3        30.30F
Walterboro     CLEAR     52  32  46 CALM      30.29F
Allendale      FAIR      48  30  49 VRB3      30.27F

...Southern Midlands and Pee Dee...

CITY           SKY/WX    TMP DP  RH WIND       PRES   REMARKS
Georgetown     FAIR      50  27  40 SE7       30.28F
Kingstree      FAIR      48  23  37 CALM      30.28F
Orangeburg     SUNNY     49  26  41 CALM      30.27F
6HR MIN TEMP:  28; 6HR MAX TEMP:  49;

Barnwell         N/A     50  28  43 CALM      30.27F
Aiken          FAIR      46  27  46 CALM      30.29F
Manning        FAIR     N/A N/A N/A MISG      30.28F
Columbia       PTSUNNY   50  26  39 SW3       30.27F
6HR MIN TEMP:  28; 6HR MAX TEMP:  51;

Sumter         SUNNY     50  24  36 CALM      30.25F
6HR MIN TEMP:  28; 6HR MAX TEMP:  50;

Florence       SUNNY     48  23  37 CALM      30.27F
6HR MIN TEMP:  28; 6HR MAX TEMP:  49;

Myrtle Beach   SUNNY     49  25  39 VRB5      30.28F
N Myrtle Beach SUNNY     50  25  37 VRB5      30.26F
6HR MIN TEMP:  30; 6HR MAX TEMP:  51;


$$

GAZ063-065-086>088-099>101-113>116-118-119-134>141-150-161900-
...Southeast Georgia...

CITY           SKY/WX    TMP DP  RH WIND       PRES   REMARKS
Savannah Arpt  MOSUNNY   53  28  38 CALM      30.30F
6HR MIN TEMP:  34; 6HR MAX TEMP:  53;

Hunter AAF     SUNNY     53  27  37 CALM        N/A
6HR MIN TEMP:  36; 6HR MAX TEMP:  53;

Fort Stewart   SUNNY     53  28  37 CALM        N/A
6HR MIN TEMP:  33; 6HR MAX TEMP:  53;

Statesboro     CLOUDY    52  23  32 CALM      30.28F
Sylvania       PTCLDY    50  31  48 CALM      30.30F
Claxton        FAIR      53  30  41 CALM      30.29F

...CSRA, Central and far Southeast Georgia...

CITY           SKY/WX    TMP DP  RH WIND       PRES   REMARKS
Thomson        SUNNY     47  24  39 NE3       30.31F
Augusta-Bush   SUNNY     50  26  39 CALM      30.27F
6HR MIN TEMP:  23; 6HR MAX TEMP:  50;

Augusta-Daniel SUNNY     48  24  39 CALM      30.28F
Swainsboro     FAIR      50  30  46 CALM      30.29F
Vidalia        SUNNY     54  30  40 CALM      30.28F
Eastman        FAIR      53  15  22 CALM      30.31F
Hazlehurst     FAIR      54  11  18 N3        30.28F
Alma           SUNNY     55  28  35 NW5       30.28F
6HR MIN TEMP:  34; 6HR MAX TEMP:  56;

Waycross       SUNNY     55  23  28 N3        30.28F
Jesup          NOT AVBL
Baxley         FAIR      50  28  43 CALM      30.28F
Brunswick      SUNNY     54  28  37 CALM      30.29F
Saint Simons   SUNNY     56  32  40 N6        30.28F
6HR MIN TEMP:  42; 6HR MAX TEMP:  56;


$$

SCZ027-028-034-036>038-045-046-048>050-GAZ119-141-161900-
...Lake and Supplemental Coastal Observations...

STATION/POSITION TIME  TEMP    WIND        PRES    WAVE   SWELL
                       AIR SEA DIR/SP/G            HT/PER HT/PER/DIR
                 (UTC) (F)     (DEG/KT/KT) (MB)    (FT/S) (FT/S/D)
Winyah Bay       1645   45      90/  6     1027.0
Lake Murray      1720   47     210/  2/  5 1024.7
ACE Basin NERRS  1645   51      70/  2     1026.0
Fort Pulaski     1748      53   70/  3/  4 1026.0F
Sapelo Island    1700   53     360/  5     1026.0

$$

ANZ835-935-AMZ111-154-330-350-352-354-370-450-454-472-161900-
...C-MAN and Buoy Observations...

STATION/POSITION TIME  TEMP    WIND        PRES    WAVE   SWELL
                       AIR SEA DIR/SP/G            HT/PER HT/PER/DIR
                 (UTC) (F)     (DEG/KT/KT) (MB)    (FT/S) (FT/S/D)
Buoy 41004       1750   54 72   50/  8/ 12 1024.6F   3/ 5   2/ 40/ 5
Buoy 41008       1750   48 58   20/  8/ 10 1025.6F   2/11   2/ 80/11
Folly Beach CMAN 1700   47      50/ 11/ 12 1026.6F
Capers Nearshore 1708   45 55   60/ 12/ 17 1025.7F


STATION/POSITION TIME  TEMP    WIND        PRES    WAVE   SWELL
                       AIR SEA DIR/SP/G            HT/PER HT/PER/DIR
                 (UTC) (F)     (DEG/KT/KT) (MB)    (FT/S) (FT/S/D)
5E St. Marys GA  1730      62                N/A     2/ 4
Frying Pan Buoy  1750   47 68   10/  6/ 10 1024.7F   3/ 5   3/ 40/ 5
Buoy 41025       1750   45 73  260/  4/ 10 1022.9F   4/ 8   3/230/ 8
Cape Lookout NC  1700          300/  5/  6 1025.1F
Buoy 41002       1750   63 74  330/ 12/ 16 1022.6F   6/ 8   5/290/ 8
Buoy 41010       NOT AVBL
St Augustine FL  1800   56 62   10/ 12/ 13 1025.1F


$$



USA.gov is the U.S. government's official web portal to all federal, state and local government web resources and services.